Location: Archemont
(49.1579°N, 1.7598°E)
Time: 07:05:02
(UTC+00:00)

BlueWalker 3 - Pass Details

Date: 04 March 2024
Orbit: 485 x 495 km, 53.2° (Epoch: 24 April)

Event Time Altitude Azimuth Distance (km) Brightness Sun altitude
Rises 19:53:44 0° 287° (WNW) 2,559 7.1 -22.2°
Reaches altitude 10° 19:56:37 10° 264° (W) 1,671 5.5 -22.6°
Maximum altitude 19:58:49 15° 227° (SW) 1,381 4.5 -23.0°
Enters shadow 20:00:08 13° 204° (SSW) 1,487 4.4 -23.2°
